Flag for Brazil Weather past 2 weeks in Porto Alegre, Rio Grande do Sul, Brazil

Now
63 °F

Scattered clouds.


Feels Like: 63 °F
Forecast: 55 / 61 °F
Wind: 3 mph from South

Location: Porto Alegre Aero-Porto

Current Time: Jul 1, 2015 at 12:18:01 PM

Latest Report: Jul 1, 2015 at 12:00 PM


Visibility: N/A

Pressure: 30.18 "Hg

Humidity: 64%

Dew point: 50 °F

Location of Porto AlegreLocation

Historic Weather in Porto Alegre — Graph

°F

Porto Alegre temperature yesterday

Maximum temperature yesterday: 70 °F (at 2:00 PM)
Minimum temperature yesterday: 45 °F (at 3:00 AM)
Average temperature yesterday: 64 °F

Past Weeks' High & Low Weather Summary

 TemperatureHumidityPressure
High75 °F (Jun 27, 3:00 PM)100% (Jun 26, 7:00 AM)30.51 "Hg (Jun 26, 7:00 AM)
Low41 °F (Jun 19, 8:00 AM)30% (Jun 16, 4:00 PM)29.80 "Hg (Jun 30, 6:00 AM)
Average58 °F78%30.21 "Hg
* Reported Jun 16 11:00 AM — Jul 1 11:00 AM, Porto Alegre, Weather by CustomWeather, © 2015

Note: Actual official high and low records may vary slightly from our data, if they occured in-between our weather recording intervals... More about our weather records

Advertising

Porto Alegre weather history for previous 24 hours

 ConditionsComfort  
Time TempWeatherWind HumidityBarometerVisibility
11:00 AM
Wed, Jul 1
61 °FScattered clouds.7 mph72%30.18 "HgN/A
10:00 AM61 °FScattered clouds.5 mph77%30.15 "HgN/A
9:00 AM59 °FPartly sunny.7 mph82%30.15 "Hg5 mi
8:00 AM59 °FPartly sunny.6 mph94%30.12 "HgN/A
7:00 AM59 °FPartly sunny.6 mph94%30.09 "HgN/A
6:00 AM59 °FLow clouds.8 mph94%30.07 "HgN/A
5:00 AM59 °FPassing clouds.8 mph94%30.07 "HgN/A
4:00 AM57 °FPassing clouds.5 mph94%30.04 "HgN/A
3:00 AM59 °FPassing clouds.3 mph88%30.04 "HgN/A
2:00 AM59 °FPassing clouds.5 mph94%30.04 "HgN/A
1:00 AM61 °FPassing clouds.No wind88%30.01 "HgN/A
12:00 AM61 °FPassing clouds.5 mph88%30.01 "HgN/A
11:00 PM
Tue, Jun 30
61 °FPassing clouds.6 mph94%29.98 "HgN/A
10:00 PM64 °FPassing clouds.7 mph83%29.98 "HgN/A
9:00 PM64 °FOvercast.5 mph88%29.98 "HgN/A
8:00 PM64 °FPassing clouds.5 mph88%29.95 "HgN/A
7:00 PM64 °FMostly cloudy.7 mph88%29.92 "HgN/A
6:00 PM66 °FMostly cloudy.7 mph83%29.92 "HgN/A
5:00 PM66 °FPassing clouds.12 mph83%29.89 "HgN/A
4:00 PM68 °FMostly cloudy.7 mph78%29.86 "HgN/A
3:00 PM68 °FPartly sunny.8 mph78%29.86 "HgN/A
2:00 PM70 °FPartly sunny.14 mph73%29.86 "HgN/A
1:00 PM68 °FScattered clouds.8 mph83%29.86 "HgN/A
12:00 PM66 °FScattered clouds.3 mph88%29.89 "HgN/A
Weather by CustomWeather, © 2015

See weather overviewHow to use our weather pages